Home   Weather   Hanau   Past weeks

Flag for Germany Past Weather in Hanau, Hesse, Germany — Yesterday and Last 2 Weeks

Now
61 °F

Passing clouds.


Feels Like: 61 °F
Forecast: 59 / 81 °F
Wind: 10 mph from Southwest

Location: Frankfurt-M-Flughafen Airport

Current Time: Jul 28, 2017 at 2:52:16 am

Latest Report: Jul 28, 2017 at 2:20 am


Visibility: N/A

Pressure: 29.80 "Hg

Humidity: 94%

Dew Point: 59 °F

Location of HanauLocation

Past Weather in Hanau — Graph

°F

Hanau Temperature Yesterday

Maximum temperature yesterday: 75 °F (at 3:50 pm)
Minimum temperature yesterday: 57 °F (at 12:20 am)
Average temperature yesterday: 65 °F

High & Low Weather Summary for the Past Weeks

 TemperatureHumidityPressure
High93 °F (Jul 19, 4:20 pm)100% (Jul 13, 4:50 am)30.24 "Hg (Jul 13, 4:50 am)
Low48 °F (Jul 13, 4:50 am)34% (Jul 19, 2:50 pm)29.68 "Hg (Jul 25, 10:20 pm)
Average67 °F71%29.96 "Hg
* Reported Jul 13 1:20 am — Jul 28 1:50 am, Hanau. Weather by CustomWeather, © 2017

Note: Actual official high and low records may vary slightly from our data, if they occured in-between our weather recording intervals... More about our weather records

Advertising

Hanau Weather History for the Previous 24 Hours

Scroll right to see more
 ConditionsComfort  
Time TempWeatherWind HumidityBarometerVisibility
1:50 am
Fri, Jul 28
61 °FPassing clouds.12 mph94%29.80 "HgN/A
1:20 am63 °FPassing clouds.9 mph88%29.80 "HgN/A
12:50 am63 °FClear.9 mph88%29.80 "Hg10 mi
12:20 am63 °FClear.8 mph88%29.77 "Hg10 mi
11:50 pm
Thu, Jul 27
63 °FPassing clouds.12 mph88%29.77 "HgN/A
11:20 pm64 °FPartly cloudy.13 mph88%29.77 "HgN/A
10:50 pm64 °FSprinkles. Passing clouds.10 mph88%29.77 "HgN/A
10:20 pm64 °FPartly cloudy.6 mph88%29.77 "HgN/A
9:50 pm64 °FPartly cloudy.8 mph88%29.77 "HgN/A
9:20 pm64 °FPassing clouds.7 mph88%29.74 "HgN/A
8:50 pm68 °FSprinkles. Broken clouds.7 mph78%29.77 "HgN/A
8:20 pm70 °FBroken clouds.6 mph69%29.77 "HgN/A
7:50 pm70 °FBroken clouds.6 mph69%29.77 "HgN/A
7:20 pm68 °FBroken clouds.7 mph73%29.77 "HgN/A
6:50 pm70 °FSprinkles. Broken clouds.7 mph69%29.74 "HgN/A
6:20 pm70 °FBroken clouds.8 mph73%29.77 "HgN/A
5:50 pm72 °FSprinkles. Broken clouds.10 mph69%29.77 "HgN/A
5:20 pm73 °FSprinkles. Broken clouds.6 mph65%29.74 "HgN/A
4:50 pm73 °FBroken clouds.6 mph65%29.77 "HgN/A
4:20 pm72 °FSprinkles. Partly sunny.13 mph69%29.77 "HgN/A
3:50 pm75 °FScattered showers. Partly sunny.12 mph65%29.77 "HgN/A
3:20 pm73 °FBroken clouds.10 mph65%29.77 "HgN/A
2:50 pm73 °FBroken clouds.17 mph65%29.77 "HgN/A
2:20 pm72 °FBroken clouds.16 mph69%29.77 "HgN/A
1:50 pm73 °FBroken clouds.14 mph69%29.77 "HgN/A
1:20 pm73 °FBroken clouds.16 mph69%29.80 "HgN/A
12:50 pm70 °FScattered showers. Broken clouds.13 mph83%29.80 "HgN/A
12:20 pm68 °FBroken clouds.8 mph88%29.80 "HgN/A
11:50 am68 °FBroken clouds.9 mph83%29.80 "HgN/A
11:20 am66 °FPartly sunny.9 mph94%29.80 "HgN/A
10:50 am66 °FPartly sunny.8 mph88%29.80 "HgN/A
10:20 am64 °FPartly sunny.9 mph94%29.80 "HgN/A
9:50 am63 °FDrizzle. Partly sunny.9 mph100%29.80 "Hg6 mi
9:00 am63 °FDrizzle. Partly sunny.10 mph94%29.83 "Hg2 mi
8:50 am61 °FDrizzle. Partly sunny.10 mph100%29.80 "Hg6 mi
8:20 am63 °FDrizzle. Partly sunny.12 mph94%29.80 "Hg4 mi
7:50 am61 °FPartly sunny.12 mph94%29.80 "Hg6 mi
7:20 am61 °FDrizzle. Partly sunny.9 mph94%29.80 "Hg4 mi
6:50 am61 °FDrizzle. Partly sunny.8 mph94%29.80 "Hg4 mi
6:22 am61 °FDrizzle. Partly sunny.5 mph94%29.80 "Hg4 mi
6:20 am61 °FDrizzle. Broken clouds.5 mph94%29.80 "Hg4 mi
5:50 am59 °FBroken clouds.1 mph100%29.80 "HgN/A
5:20 am59 °FPartly cloudy.5 mph100%29.80 "HgN/A
4:50 am59 °FLight rain. Partly cloudy.8 mph94%29.80 "Hg5 mi
4:20 am59 °FLight rain. Passing clouds.8 mph94%29.80 "Hg6 mi
3:50 am61 °FLight rain. Passing clouds.6 mph83%29.83 "HgN/A
3:20 am61 °FPassing clouds.6 mph83%29.83 "HgN/A
2:50 am61 °FLight rain. Passing clouds.7 mph83%29.83 "HgN/A
2:20 am59 °FPassing clouds.7 mph88%29.83 "HgN/A
Weather by CustomWeather, © 2017

See weather overviewHow to use our weather pages